Language: 


Des rapports , des résumés tant et plus, au choix de chacun....


Données statistiques de la station
Quotidien Rapport Octobre 21, 2017 Unités:  Anglais    Métrique   les deux
« Précédent Jour
Suivant Jour »
Quotidien Hebdomadaire Mensuel Annuel Actuel
  Haut: Bas: Moyen:
Température: 56.7 °F 32 °F 54.7 °F
Pt de rosée: 57.2 °F 48.2 °F 53.6 °F
Humidité: 98 % 0 % 93 %
Vitesse du vent: 29.1 mph 0 mph 8.3 mph
Rafales: 30.9 mph - -
Vent:- - SW
Pression: 29.9 in 0 in -
Précipitation: 0.17 in    
Historical Graphs
 
 
Données statistiques pour Octobre 21, 2017
Heure Température Point de rosée Pression Vent Vitesse du vent Refales Humidité Pluie (taux horaire)
00:04 52.5 °F 48.2 °F 29.9 in South 1.6 mph 4.5 mph 88 % 0 in
00:09 52.7 °F 50 °F 29.9 in SW 3.1 mph 6.5 mph 88 % 0 in
00:14 52.7 °F 50 °F 29.9 in South 6.5 mph 7.8 mph 88 % 0 in
00:19 52.9 °F 50 °F 29.9 in South 4.7 mph 8.5 mph 88 % 0 in
00:24 52.9 °F 50 °F 29.9 in SW 4.3 mph 8.5 mph 87 % 0 in
00:29 52.5 °F 48.2 °F 29.9 in South 5.4 mph 7.4 mph 87 % 0 in
00:34 52.3 °F 48.2 °F 29.9 in SSW 4.9 mph 6.3 mph 87 % 0 in
00:39 52.3 °F 48.2 °F 29.9 in SSW 5.4 mph 5.6 mph 87 % 0 in
00:44 52.2 °F 48.2 °F 29.9 in SW 4.3 mph 5.6 mph 88 % 0 in
00:49 52.2 °F 50 °F 29.9 in South 3.1 mph 5.6 mph 89 % 0 in
00:54 52.3 °F 50 °F 29.9 in South 1.3 mph 6.7 mph 89 % 0 in
00:59 52.3 °F 50 °F 29.9 in Calm   6.7 mph 89 % 0 in
01:04 52.3 °F 50 °F 29.9 in Calm   4.3 mph 89 % 0 in
01:09 52.3 °F 50 °F 29.9 in South 3.4 mph 4.9 mph 89 % 0 in
01:14 52.2 °F 50 °F 29.9 in Calm   4.9 mph 89 % 0 in
01:19 52.2 °F 50 °F 29.8 in South 5.4 mph 8.1 mph 89 % 0 in
01:24 52.2 °F 50 °F 29.8 in SSW 4.3 mph 8.5 mph 89 % 0 in
01:26 52.2 °F 50 °F 29.8 in South 3.6 mph 8.5 mph 89 % 0 in
01:31 52.2 °F 50 °F 29.9 in SSW 5.6 mph 9.6 mph 89 % 0 in
01:36 52.3 °F 50 °F 29.9 in South 7.8 mph 10.3 mph 89 % 0 in
01:41 52.3 °F 50 °F 29.9 in SW 3.1 mph 10.3 mph 89 % 0 in
01:46 52.3 °F 50 °F 29.8 in SSE 5.6 mph 8.5 mph 89 % 0 in
01:51 52.3 °F 50 °F 29.8 in SSW 4.3 mph 8.7 mph 89 % 0 in
01:56 52.2 °F 50 °F 29.8 in Calm   8.7 mph 89 % 0 in
02:01 52.2 °F 50 °F 29.8 in South 3.6 mph 7.6 mph 89 % 0 in
02:06 52.2 °F 50 °F 29.8 in SSW 1.6 mph 7.2 mph 89 % 0 in
02:07 52.2 °F 50 °F 29.8 in SSE 3.8 mph 7.2 mph 89 % 0 in
02:12 52.2 °F 50 °F 29.8 in South 4.7 mph 7.6 mph 89 % 0 in
02:17 52 °F 48.2 °F 29.8 in SSE 4.3 mph 7.6 mph 89 % 0 in
02:22 52 °F 48.2 °F 29.8 in South 4.7 mph 7.6 mph 89 % 0 in
02:27 52 °F 48.2 °F 29.8 in SSE 3.8 mph 6.5 mph 89 % 0 in
02:32 51.8 °F 48.2 °F 29.8 in South 3.4 mph 5.8 mph 89 % 0 in
02:37 51.6 °F 48.2 °F 29.8 in SSW 1.3 mph 5.8 mph 90 % 0 in
02:42 51.6 °F 48.2 °F 29.8 in SSW 1.1 mph 6.5 mph 90 % 0 in
02:52 51.6 °F 48.2 °F 29.8 in South 2.9 mph 7.4 mph 90 % 0 in
02:57 51.6 °F 48.2 °F 29.8 in South 2.5 mph 6.5 mph 90 % 0 in
03:02 32 °F 48.2 °F 0 in Calm   5.6 mph 0 % 0 in
03:07 51.6 °F 50 °F 29.8 in SSW 5.6 mph 5.6 mph 92 % 0 in
03:12 51.6 °F 50 °F 29.8 in South 4.9 mph 11.9 mph 92 % 0 in
03:17 52.3 °F 50 °F 29.8 in South 8.5 mph 11.9 mph 92 % 0 in
03:22 52.7 °F 50 °F 29.8 in South 7.6 mph 8.5 mph 92 % 0 in
03:27 53.1 °F 50 °F 29.8 in SSW 3.4 mph 8.5 mph 92 % 0 in
03:29 53.1 °F 50 °F 29.8 in South 8.1 mph 12.8 mph 92 % 0 in
03:34 53.1 °F 50 °F 29.8 in SW 5.4 mph 12.8 mph 91 % 0 in
03:39 53.2 °F 50 °F 29.8 in SSW 8.5 mph 10.1 mph 91 % 0 in
03:44 53.4 °F 51.8 °F 29.8 in SSW 6 mph 10.1 mph 91 % 0 in
03:49 53.8 °F 51.8 °F 29.8 in SSW 8.7 mph 8.7 mph 90 % 0 in
03:54 53.8 °F 51.8 °F 29.8 in SW 6.7 mph 8.7 mph 90 % 0 in
03:59 53.8 °F 51.8 °F 29.8 in South 0.9 mph 8.5 mph 89 % 0 in
04:04 53.8 °F 51.8 °F 29.8 in South 3.1 mph 8.1 mph 89 % 0 in
04:09 53.8 °F 51.8 °F 29.8 in SSW 7.4 mph 7.4 mph 89 % 0 in
04:14 54 °F 51.8 °F 29.8 in SW 8.7 mph 8.7 mph 89 % 0 in
04:19 54.1 °F 51.8 °F 29.8 in SSW 6.7 mph 10.1 mph 89 % 0 in
04:24 54.1 °F 51.8 °F 29.8 in South 5.8 mph 12.8 mph 89 % 0 in
04:29 54.1 °F 51.8 °F 29.8 in South 5.6 mph 12.8 mph 89 % 0 in
04:35 54.1 °F 51.8 °F 29.7 in South 3.8 mph 10.3 mph 88 % 0 in
04:40 54.3 °F 51.8 °F 29.7 in South 7.4 mph 10.3 mph 88 % 0 in
04:45 54.3 °F 51.8 °F 29.7 in SSE 7.8 mph 11 mph 89 % 0 in
04:50 54.3 °F 51.8 °F 29.7 in SE 8.1 mph 15.2 mph 89 % 0 in
04:55 54.3 °F 51.8 °F 29.7 in South 5.4 mph 15.2 mph 89 % 0 in
05:00 54.5 °F 51.8 °F 29.7 in South 12.8 mph 12.8 mph 89 % 0 in
05:05 54.5 °F 51.8 °F 29.7 in South 5.8 mph 12.8 mph 89 % 0 in
05:10 54.5 °F 51.8 °F 29.7 in South 5.6 mph 12.8 mph 89 % 0 in
05:17 54.5 °F 51.8 °F 29.7 in SSW 6.3 mph 8.7 mph 89 % 0 in
05:20 54.7 °F 51.8 °F 29.7 in South 8.1 mph 8.7 mph 90 % 0 in
05:23 54.7 °F 51.8 °F 29.7 in SSW 5.4 mph 11 mph 90 % 0 in
05:27 54.7 °F 51.8 °F 29.7 in SW 9.8 mph 11 mph 90 % 0 in
05:29 54.5 °F 53.6 °F 29.7 in South 6.5 mph 11 mph 92 % 0 in
05:32 54.5 °F 53.6 °F 29.7 in South 5.6 mph 10.3 mph 92 % 0 in
05:37 54.5 °F 53.6 °F 29.7 in SSW 2.2 mph 9.8 mph 92 % 0 in
05:42 54.5 °F 53.6 °F 29.7 in SSW 3.6 mph 8.7 mph 92 % 0.01 in
05:47 54.5 °F 53.6 °F 29.7 in South 5.4 mph 7.4 mph 92 % 0.02 in
05:52 54.5 °F 53.6 °F 29.7 in South 8.7 mph 8.7 mph 92 % 0.05 in
05:57 54.5 °F 53.6 °F 29.7 in South 8.7 mph 8.7 mph 92 % 0.05 in
06:02 54.5 °F 53.6 °F 29.7 in SSW 7.4 mph 8.7 mph 92 % 0.06 in
06:08 54.5 °F 53.6 °F 29.7 in SSW 1.6 mph 8.5 mph 92 % 0.06 in
06:13 54.5 °F 53.6 °F 29.7 in SSE 8.1 mph 8.5 mph 92 % 0.06 in
06:18 54.5 °F 53.6 °F 29.7 in South 7.4 mph 8.1 mph 92 % 0.06 in
06:23 54.5 °F 53.6 °F 29.7 in South 6 mph 8.1 mph 92 % 0.07 in
06:28 54.5 °F 53.6 °F 29.7 in SSE 6.3 mph 7.6 mph 92 % 0.07 in
06:33 54.5 °F 53.6 °F 29.7 in SSW 7.6 mph 11.2 mph 92 % 0.07 in
06:38 54.7 °F 55.4 °F 29.7 in SSW 4.7 mph 11.2 mph 98 % 0.06 in
06:43 54.7 °F 55.4 °F 29.7 in SSW 4.7 mph 11.2 mph 98 % 0.05 in
06:48 54.7 °F 55.4 °F 29.7 in SSW 4.7 mph 11.2 mph 98 % 0.05 in
06:53 54.7 °F 55.4 °F 29.7 in SSW 4.7 mph 11.2 mph 98 % 0.02 in
06:58 54.7 °F 55.4 °F 29.7 in SSW 4.7 mph 11.2 mph 98 % 0.02 in
07:03 54.7 °F 55.4 °F 29.7 in SSW 4.7 mph 11.2 mph 98 % 0.01 in
07:08 54.7 °F 55.4 °F 29.7 in SSW 4.7 mph 11.2 mph 98 % 0.01 in
07:13 54.7 °F 55.4 °F 29.7 in SSW 4.7 mph 11.2 mph 98 % 0.01 in
07:18 54.7 °F 55.4 °F 29.7 in SSW 4.7 mph 11.2 mph 98 % 0.01 in
07:23 54.7 °F 55.4 °F 29.7 in SSW 6.5 mph 6.5 mph 98 % 0 in
07:28 54.7 °F 55.4 °F 29.7 in SSW 6.5 mph 6.5 mph 98 % 0 in
07:33 54.7 °F 55.4 °F 29.7 in SSW 6.5 mph 6.5 mph 98 % 0 in
07:38 54.7 °F 55.4 °F 29.7 in SSW 6.5 mph 6.5 mph 98 % 0 in
07:43 54.7 °F 55.4 °F 29.7 in South 7.6 mph 10.1 mph 98 % 0 in
07:48 54.7 °F 55.4 °F 29.7 in SSW 9.8 mph 10.1 mph 98 % 0 in
07:53 54.7 °F 55.4 °F 29.7 in SSW 7.6 mph 9.8 mph 98 % 0 in
07:58 54.7 °F 55.4 °F 29.7 in SSW 7.6 mph 9.8 mph 98 % 0 in
08:03 54.7 °F 55.4 °F 29.7 in SSW 7.6 mph 9.8 mph 98 % 0.01 in
08:08 54.7 °F 55.4 °F 29.7 in SSW 7.6 mph 9.8 mph 98 % 0.01 in
08:13 54.7 °F 55.4 °F 29.7 in SSW 7.6 mph 9.8 mph 98 % 0.01 in
08:18 54.7 °F 55.4 °F 29.7 in SSW 7.6 mph 9.8 mph 98 % 0.01 in
08:23 54.7 °F 55.4 °F 29.7 in South 7.6 mph 7.6 mph 98 % 0.01 in
08:28 56.1 °F 55.4 °F 29.7 in South 7.6 mph 7.6 mph 98 % 0.01 in
08:33 56.1 °F 55.4 °F 29.7 in South 7.6 mph 7.6 mph 98 % 0.01 in
08:38 56.1 °F 55.4 °F 29.7 in South 7.6 mph 7.6 mph 98 % 0.01 in
08:43 56.1 °F 55.4 °F 29.7 in SSW 6.5 mph 6.5 mph 98 % 0.01 in
08:48 56.1 °F 55.4 °F 29.7 in South 6.3 mph 6.5 mph 98 % 0.01 in
08:53 56.1 °F 55.4 °F 29.7 in South 6.3 mph 6.5 mph 98 % 0.01 in
08:58 56.1 °F 55.4 °F 29.7 in South 6.3 mph 6.5 mph 98 % 0.01 in
09:03 56.7 °F 57.2 °F 29.7 in South 5.8 mph 6.3 mph 98 % 0 in
09:08 56.7 °F 57.2 °F 29.7 in SSW 6.9 mph 6.9 mph 98 % 0 in
09:13 56.7 °F 57.2 °F 29.7 in SSW 4.9 mph 6.9 mph 98 % 0 in
09:18 56.7 °F 57.2 °F 29.8 in SSW 4.9 mph 6.9 mph 98 % 0 in
09:23 56.7 °F 57.2 °F 29.8 in SSW 6.5 mph 6.5 mph 98 % 0 in
09:28 56.7 °F 57.2 °F 29.8 in SSW 6.5 mph 6.5 mph 98 % 0 in
09:34 56.7 °F 57.2 °F 29.8 in SSW 6.5 mph 6.5 mph 98 % 0 in
09:39 56.7 °F 57.2 °F 29.8 in SW 12.8 mph 12.8 mph 98 % 0 in
09:44 56.7 °F 57.2 °F 29.8 in WSW 5.8 mph 12.8 mph 98 % 0 in
09:49 56.7 °F 57.2 °F 29.8 in SW 7.4 mph 10.1 mph 98 % 0 in
09:54 56.7 °F 57.2 °F 29.8 in WSW 7.8 mph 11 mph 98 % 0 in
09:59 56.7 °F 57.2 °F 29.8 in SW 6.5 mph 13.2 mph 98 % 0 in
10:04 56.7 °F 57.2 °F 29.8 in SW 10.5 mph 13.2 mph 98 % 0 in
10:09 56.7 °F 57.2 °F 29.8 in SW 10.3 mph 13 mph 98 % 0 in
10:14 56.7 °F 57.2 °F 29.8 in SW 8.5 mph 10.7 mph 98 % 0 in
10:16 56.7 °F 57.2 °F 29.8 in WSW 8.1 mph 10.7 mph 98 % 0 in
10:21 56.7 °F 57.2 °F 29.8 in SW 8.7 mph 13.6 mph 98 % 0 in
10:26 56.7 °F 57.2 °F 29.8 in SSW 9.6 mph 13.6 mph 98 % 0 in
10:31 56.7 °F 57.2 °F 29.8 in SW 12.8 mph 16.3 mph 98 % 0 in
10:36 56.7 °F 57.2 °F 29.8 in WSW 17.2 mph 17.2 mph 98 % 0 in
10:41 56.7 °F 57.2 °F 29.8 in SSW 10.1 mph 17.2 mph 98 % 0 in
10:46 56.7 °F 57.2 °F 29.8 in SW 12.8 mph 16.6 mph 98 % 0 in
10:51 56.7 °F 57.2 °F 29.8 in SW 11.9 mph 16.6 mph 98 % 0 in
10:56 56.7 °F 57.2 °F 29.8 in SSW 13 mph 17.7 mph 98 % 0 in
11:01 56.7 °F 57.2 °F 29.8 in SW 12.5 mph 17.7 mph 98 % 0 in
11:06 56.7 °F 57.2 °F 29.8 in SSW 8.1 mph 16.1 mph 98 % 0 in
11:11 56.7 °F 57.2 °F 29.8 in SW 16.6 mph 16.6 mph 98 % 0 in
11:16 56.7 °F 57.2 °F 29.8 in WSW 10.3 mph 16.6 mph 98 % 0 in
11:22 56.7 °F 57.2 °F 29.8 in West 17 mph 17.9 mph 98 % 0 in
11:27 56.7 °F 57.2 °F 29.8 in WSW 14.3 mph 17 mph 98 % 0 in
11:32 56.7 °F 57.2 °F 29.8 in WSW 14.8 mph 18.1 mph 98 % 0 in
11:37 56.7 °F 57.2 °F 29.8 in SW 15.4 mph 21.3 mph 98 % 0 in
11:42 56.7 °F 57.2 °F 29.8 in WSW 17.2 mph 21.3 mph 98 % 0 in
11:47 56.7 °F 57.2 °F 29.8 in SW 10.1 mph 17.2 mph 98 % 0 in
11:52 56.7 °F 57.2 °F 29.8 in West 12.1 mph 13.2 mph 98 % 0 in
11:57 56.7 °F 57.2 °F 29.8 in WSW 10.5 mph 22.4 mph 98 % 0 in
12:02 56.7 °F 57.2 °F 29.8 in SW 8.1 mph 22.4 mph 98 % 0 in
12:07 56.7 °F 57.2 °F 29.8 in SW 14.3 mph 15.7 mph 98 % 0 in
12:12 56.7 °F 57.2 °F 29.8 in WSW 14.8 mph 15.7 mph 98 % 0 in
12:17 56.7 °F 57.2 °F 29.8 in SW 17.7 mph 17.7 mph 98 % 0 in
12:22 56.7 °F 57.2 °F 29.8 in WSW 10.5 mph 17.7 mph 98 % 0 in
12:27 56.7 °F 57.2 °F 29.8 in WSW 23.3 mph 23.3 mph 98 % 0 in
12:32 56.7 °F 57.2 °F 29.8 in SW 13.2 mph 23.3 mph 98 % 0 in
12:37 56.7 °F 57.2 °F 29.8 in SW 13 mph 19.9 mph 98 % 0 in
12:42 56.7 °F 57.2 °F 29.8 in WSW 15.4 mph 19.5 mph 98 % 0 in
12:47 56.7 °F 57.2 °F 29.8 in WSW 15.9 mph 19.5 mph 98 % 0 in
12:52 56.7 °F 57.2 °F 29.8 in WSW 11.4 mph 20.4 mph 98 % 0 in
12:57 56.7 °F 57.2 °F 29.8 in SW 7.4 mph 20.4 mph 98 % 0 in
13:02 56.7 °F 57.2 °F 29.8 in SSW 12.3 mph 16.6 mph 98 % 0 in
13:08 56.7 °F 57.2 °F 29.8 in WSW 10.1 mph 16.1 mph 98 % 0 in
13:13 56.7 °F 57.2 °F 29.8 in WSW 9.6 mph 17.2 mph 98 % 0 in
13:18 56.7 °F 57.2 °F 29.8 in West 7.8 mph 17.2 mph 98 % 0 in
13:23 56.7 °F 57.2 °F 29.8 in SSW 13.9 mph 17.7 mph 98 % 0 in
13:28 56.7 °F 57.2 °F 29.8 in SSW 13 mph 17.7 mph 98 % 0 in
13:33 56.7 °F 57.2 °F 29.8 in WSW 10.1 mph 15.2 mph 98 % 0 in
13:38 56.7 °F 57.2 °F 29.8 in SW 11.4 mph 18.8 mph 98 % 0 in
13:43 56.7 °F 57.2 °F 29.8 in WSW 22.4 mph 22.4 mph 98 % 0 in
13:48 56.7 °F 57.2 °F 29.8 in WSW 13 mph 22.4 mph 98 % 0 in
13:53 56.7 °F 57.2 °F 29.8 in WSW 12.8 mph 19.7 mph 98 % 0 in
13:58 56.7 °F 57.2 °F 29.8 in SSW 10.7 mph 19 mph 98 % 0 in
14:03 56.7 °F 57.2 °F 29.8 in SW 19.9 mph 25.5 mph 98 % 0 in
14:08 56.7 °F 57.2 °F 29.8 in WSW 16.8 mph 25.5 mph 98 % 0 in
14:13 56.7 °F 57.2 °F 29.8 in SW 19.5 mph 19.5 mph 98 % 0 in
14:18 56.7 °F 57.2 °F 29.8 in SW 12.5 mph 19.5 mph 98 % 0 in
14:24 56.7 °F 57.2 °F 29.8 in SW 15.4 mph 23 mph 98 % 0 in
14:29 56.7 °F 57.2 °F 29.8 in WSW 11 mph 23 mph 98 % 0 in
14:34 56.7 °F 57.2 °F 29.8 in SW 13.2 mph 23.5 mph 98 % 0 in
14:39 56.7 °F 57.2 °F 29.8 in WSW 12.8 mph 23.5 mph 98 % 0 in
14:44 56.7 °F 57.2 °F 29.8 in SSW 15.2 mph 19.2 mph 98 % 0 in
14:49 56.7 °F 57.2 °F 29.8 in WSW 10.5 mph 23 mph 98 % 0 in
14:54 56.7 °F 57.2 °F 29.8 in SSW 14.5 mph 22.8 mph 98 % 0 in
14:59 56.7 °F 57.2 °F 29.8 in SW 19.7 mph 22.8 mph 98 % 0 in
15:04 56.7 °F 57.2 °F 29.8 in SSW 14.5 mph 23.3 mph 98 % 0 in
15:09 56.7 °F 57.2 °F 29.8 in SW 16.8 mph 23.3 mph 98 % 0 in
15:14 56.7 °F 57.2 °F 29.8 in West 13.6 mph 21 mph 98 % 0 in
15:19 56.7 °F 57.2 °F 29.8 in SW 17.7 mph 23.7 mph 98 % 0 in
15:24 56.7 °F 57.2 °F 29.8 in WSW 11 mph 23.7 mph 98 % 0 in
15:29 56.7 °F 57.2 °F 29.8 in SW 12.3 mph 25.5 mph 98 % 0 in
15:34 56.7 °F 57.2 °F 29.7 in WSW 12.3 mph 25.5 mph 98 % 0 in
15:39 56.7 °F 57.2 °F 29.7 in WSW 8.1 mph 17 mph 98 % 0 in
15:44 56.7 °F 57.2 °F 29.7 in WSW 13.6 mph 14.8 mph 98 % 0 in
15:50 56.7 °F 57.2 °F 29.8 in West 7.8 mph 14.8 mph 98 % 0 in
15:55 56.7 °F 57.2 °F 29.8 in SSW 14.5 mph 19.9 mph 98 % 0 in
16:00 56.7 °F 57.2 °F 29.8 in SSW 21.3 mph 25.3 mph 98 % 0 in
16:05 56.7 °F 57.2 °F 29.8 in WSW 16.1 mph 25.3 mph 98 % 0 in
16:10 56.7 °F 57.2 °F 29.8 in WSW 10.5 mph 23.9 mph 98 % 0 in
16:15 56.7 °F 57.2 °F 29.8 in WSW 13.9 mph 23.9 mph 98 % 0 in
16:20 56.7 °F 57.2 °F 29.8 in WSW 17.7 mph 17.9 mph 98 % 0 in
16:25 56.7 °F 57.2 °F 29.8 in WSW 14.5 mph 25.1 mph 98 % 0 in
16:35 56.7 °F 57.2 °F 29.8 in WSW 15.4 mph 22.4 mph 98 % 0 in
16:40 56.7 °F 57.2 °F 29.8 in SW 14.8 mph 21.9 mph 98 % 0 in
16:45 56.7 °F 57.2 °F 29.8 in WSW 10.7 mph 22.6 mph 98 % 0 in
16:50 56.7 °F 57.2 °F 29.8 in WSW 13 mph 22.6 mph 98 % 0 in
16:55 56.7 °F 57.2 °F 29.8 in WSW 13.6 mph 17 mph 98 % 0 in
17:00 56.7 °F 57.2 °F 29.8 in West 29.1 mph 29.1 mph 98 % 0 in
17:05 56.7 °F 57.2 °F 29.8 in WSW 27.7 mph 30.9 mph 98 % 0 in
17:08 56.7 °F 57.2 °F 29.8 in WSW 27.7 mph 30.9 mph 98 % 0.04 in
17:13 56.7 °F 57.2 °F 29.8 in WSW 24.4 mph 27.7 mph 98 % 0.04 in
17:19 56.7 °F 57.2 °F 29.8 in WSW 10.1 mph 24.4 mph 98 % 0.05 in
17:24 56.7 °F 57.2 °F 29.8 in WSW 11 mph 11.9 mph 98 % 0.05 in
17:29 56.7 °F 57.2 °F 29.8 in SW 8.1 mph 11.9 mph 98 % 0.05 in
17:34 56.7 °F 57.2 °F 29.8 in SW 9.8 mph 11 mph 98 % 0.05 in
17:39 56.7 °F 57.2 °F 29.8 in SW 6 mph 9.8 mph 98 % 0.05 in
17:44 56.7 °F 57.2 °F 29.8 in SW 5.8 mph 8.7 mph 98 % 0.05 in
17:49 56.7 °F 57.2 °F 29.8 in WSW 5.6 mph 8.7 mph 98 % 0.05 in
17:54 56.7 °F 57.2 °F 29.8 in WSW 7.8 mph 8.5 mph 98 % 0.05 in
17:59 56.7 °F 57.2 °F 29.8 in WSW 5.6 mph 8.5 mph 98 % 0.05 in
18:04 56.7 °F 57.2 °F 29.8 in WSW 5.6 mph 8.5 mph 98 % 0.06 in
18:09 56.7 °F 57.2 °F 29.8 in SSW 5.4 mph 6.5 mph 98 % 0.02 in
18:14 56.7 °F 57.2 °F 29.8 in SW 5.8 mph 6 mph 98 % 0.02 in
18:19 56.7 °F 57.2 °F 29.8 in SW 5.4 mph 6.7 mph 98 % 0.01 in
18:24 56.7 °F 57.2 °F 29.8 in WSW 6.3 mph 6.7 mph 98 % 0.01 in
18:29 56.7 °F 57.2 °F 29.8 in WSW 6.5 mph 6.5 mph 98 % 0.01 in
18:34 56.7 °F 57.2 °F 29.8 in WSW 6.3 mph 7.4 mph 98 % 0.01 in
18:39 56.7 °F 57.2 °F 29.8 in Calm   7.4 mph 98 % 0.01 in
18:44 56.7 °F 57.2 °F 29.8 in SSW 3.1 mph 7.4 mph 98 % 0.01 in
18:50 54.1 °F 51.8 °F 29.8 in Calm   6 mph 90 % 0.01 in
18:55 54.1 °F 51.8 °F 29.8 in Calm   6 mph 90 % 0.01 in
19:00 54.1 °F 51.8 °F 29.8 in Calm   6 mph 90 % 0.01 in
19:05 54.1 °F 51.8 °F 29.8 in Calm   6 mph 90 % 0 in
19:10 54.1 °F 51.8 °F 29.8 in Calm   6 mph 90 % 0 in
19:15 54.1 °F 51.8 °F 29.8 in Calm   6 mph 90 % 0 in
19:20 54.1 °F 51.8 °F 29.8 in Calm   6 mph 90 % 0 in
19:25 54.1 °F 51.8 °F 29.8 in SW 5.8 mph 5.8 mph 90 % 0 in
19:30 54.1 °F 51.8 °F 29.8 in SW 5.8 mph 5.8 mph 90 % 0 in
19:35 54.1 °F 51.8 °F 29.8 in SW 5.8 mph 5.8 mph 90 % 0 in
19:40 54.1 °F 51.8 °F 29.8 in SW 5.8 mph 5.8 mph 90 % 0 in
19:45 54.1 °F 51.8 °F 29.8 in SW 5.8 mph 5.8 mph 90 % 0 in
19:50 54.1 °F 51.8 °F 29.8 in SW 5.8 mph 5.8 mph 90 % 0 in
19:55 54.1 °F 51.8 °F 29.8 in SW 5.8 mph 5.8 mph 90 % 0 in
20:00 54.1 °F 51.8 °F 29.8 in SW 5.8 mph 5.8 mph 90 % 0 in
20:05 54.1 °F 51.8 °F 29.8 in SW 5.8 mph 5.8 mph 90 % 0.01 in
20:10 54.1 °F 51.8 °F 29.8 in SW 5.8 mph 5.8 mph 90 % 0.01 in
20:15 54.1 °F 51.8 °F 29.8 in SW 5.8 mph 5.8 mph 90 % 0.01 in
20:20 54.1 °F 51.8 °F 29.8 in SW 5.8 mph 5.8 mph 90 % 0.01 in
20:26 54.1 °F 51.8 °F 29.8 in SW 5.8 mph 5.8 mph 90 % 0.01 in
20:31 54.1 °F 51.8 °F 29.8 in SW 5.8 mph 5.8 mph 90 % 0.01 in
20:36 54.1 °F 51.8 °F 29.8 in SW 5.8 mph 5.8 mph 90 % 0.02 in
20:41 54.1 °F 51.8 °F 29.8 in SW 5.8 mph 5.8 mph 90 % 0.02 in
20:46 54.1 °F 51.8 °F 29.8 in SW 5.8 mph 5.8 mph 90 % 0.02 in
20:51 54.1 °F 51.8 °F 29.8 in SW 5.8 mph 5.8 mph 90 % 0.02 in
20:56 54.1 °F 51.8 °F 29.8 in SW 5.8 mph 5.8 mph 90 % 0.02 in
21:01 52.9 °F 50 °F 29.8 in SW 5.8 mph 5.8 mph 90 % 0.02 in
21:06 52.9 °F 50 °F 29.8 in SW 5.8 mph 5.8 mph 90 % 0.01 in
21:11 52.9 °F 50 °F 29.8 in SW 5.8 mph 5.8 mph 89 % 0.01 in
21:16 53.1 °F 50 °F 29.8 in SW 5.8 mph 5.8 mph 88 % 0.01 in
21:21 53.1 °F 48.2 °F 29.8 in SW 5.8 mph 5.8 mph 86 % 0.01 in
21:26 53.1 °F 48.2 °F 29.8 in SW 5.8 mph 5.8 mph 85 % 0.01 in
21:31 53.1 °F 48.2 °F 29.8 in SW 5.8 mph 5.8 mph 85 % 0 in
21:36 53.1 °F 48.2 °F 29.8 in SW 5.8 mph 5.8 mph 83 % 0 in
21:41 53.1 °F 48.2 °F 29.8 in SW 5.8 mph 5.8 mph 83 % 0 in
21:46 53.1 °F 48.2 °F 29.8 in SW 5.8 mph 5.8 mph 82 % 0 in
21:47 53.1 °F 48.2 °F 29.8 in SW 5.8 mph 5.8 mph 82 % 0 in
21:52 53.2 °F 48.2 °F 29.8 in SW 5.8 mph 5.8 mph 83 % 0 in
21:57 53.2 °F 48.2 °F 29.8 in SW 5.8 mph 5.8 mph 82 % 0 in
22:02 53.2 °F 48.2 °F 29.8 in SW 5.8 mph 5.8 mph 82 % 0 in
22:07 53.2 °F 48.2 °F 29.8 in SW 5.8 mph 5.8 mph 83 % 0 in
22:12 53.2 °F 48.2 °F 29.8 in SW 5.8 mph 5.8 mph 83 % 0 in
22:17 53.2 °F 48.2 °F 29.8 in SW 5.8 mph 5.8 mph 83 % 0 in
22:22 53.2 °F 48.2 °F 29.8 in SW 5.8 mph 5.8 mph 83 % 0 in
22:27 53.2 °F 48.2 °F 29.8 in SW 5.8 mph 5.8 mph 83 % 0 in
22:32 52.9 °F 48.2 °F 29.8 in SW 5.8 mph 5.8 mph 81 % 0 in
22:42 52.9 °F 48.2 °F 29.8 in WSW 8.1 mph 14.3 mph 81 % 0 in
22:47 52.9 °F 48.2 °F 29.8 in WSW 7.8 mph 14.3 mph 81 % 0 in
22:52 52.9 °F 48.2 °F 29.8 in SW 11.2 mph 14.8 mph 81 % 0 in
22:57 52.9 °F 48.2 °F 29.8 in SSW 14.5 mph 15.7 mph 81 % 0 in
23:02 52.9 °F 48.2 °F 29.8 in South 12.5 mph 17.9 mph 81 % 0 in
23:07 52.9 °F 48.2 °F 29.8 in SW 8.5 mph 18.1 mph 81 % 0 in
23:12 52.9 °F 48.2 °F 29.8 in SSW 10.3 mph 18.1 mph 81 % 0 in
23:17 52.9 °F 48.2 °F 29.8 in SW 12.8 mph 18.8 mph 81 % 0 in
23:22 52.9 °F 48.2 °F 29.8 in WSW 13.2 mph 18.8 mph 81 % 0 in
23:27 52.9 °F 48.2 °F 29.8 in WSW 10.1 mph 17.2 mph 81 % 0 in
23:32 52.9 °F 48.2 °F 29.8 in WSW 13.2 mph 17.2 mph 81 % 0 in
23:37 52.9 °F 48.2 °F 29.8 in SW 7.8 mph 19.5 mph 81 % 0 in
23:42 52.9 °F 48.2 °F 29.8 in SW 11 mph 19.5 mph 81 % 0 in
23:47 52.9 °F 48.2 °F 29.8 in WSW 14.3 mph 16.6 mph 81 % 0 in
23:52 52.9 °F 48.2 °F 29.8 in SSW 14.5 mph 14.5 mph 81 % 0 in
23:57 52.9 °F 48.2 °F 29.8 in SSW 15.2 mph 15.2 mph 81 % 0 in
Le Gheer Warneton
Courtoisie de Weather Underground - 2.25 mb

Mise a jour : 18/12/2017 23:19:11
Généré par Cumulus 1.9.4 (1099)